Hourly Weather Diapaga

Today, 24 September, Thursday

Time Temperature Precipitation Wind Pressure Humidity
00:00 +27°C° 0 mm 2 mps 736 mmHg 75%
01:00 +27°C° 0 mm 2 mps 736 mmHg 79%
02:00 +26°C° 0 mm 2 mps 735 mmHg 82%
03:00 +26°C° 0 mm 2 mps 735 mmHg 86%
04:00 +26°C° 0 mm 3 mps 735 mmHg 88%
05:00 +26°C° 0 mm 3 mps 736 mmHg 89%
06:00 +26°C° 0 mm 3 mps 736 mmHg 91%
07:00 +27°C° 0 mm 3 mps 736 mmHg 85%
08:00 +28°C° 0 mm 4 mps 737 mmHg 79%
09:00 +30°C° 0 mm 4 mps 737 mmHg 74%
10:00 +32°C° 0 mm 4 mps 737 mmHg 69%
11:00 +33°C° 0 mm 3 mps 737 mmHg 64%
12:00 +35°C° 0 mm 2 mps 736 mmHg 58%
13:00 +35°C° 0 mm 2 mps 736 mmHg 55%
14:00 +35°C° 0 mm 1 mps 735 mmHg 52%
15:00 +35°C° 0 mm 1 mps 735 mmHg 49%
16:00 +34°C° 0.2 mm 1 mps 735 mmHg 55%
17:00 +32°C° 0.2 mm 1 mps 735 mmHg 61%
18:00 +31°C° 0.2 mm 1 mps 735 mmHg 67%
19:00 +30°C° 0.2 mm 1 mps 735 mmHg 71%
20:00 +29°C° 0.2 mm 2 mps 735 mmHg 75%
21:00 +28°C° 0.2 mm 2 mps 736 mmHg 80%
22:00 +27°C° 0.1 mm 2 mps 736 mmHg 82%
23:00 +27°C° 0.1 mm 3 mps 736 mmHg 84%

Tomorrow, 25 September, Friday

Time Temperature Precipitation Wind Pressure Humidity
00:00 +27°C° 0.1 mm 3 mps 735 mmHg 86%
01:00 +26°C° 0 mm 3 mps 735 mmHg 88%
02:00 +26°C° 0 mm 3 mps 735 mmHg 90%
03:00 +25°C° 0 mm 3 mps 735 mmHg 92%
04:00 +25°C° 0.3 mm 3 mps 735 mmHg 92%
05:00 +25°C° 0.3 mm 4 mps 736 mmHg 92%
06:00 +25°C° 0.3 mm 4 mps 736 mmHg 92%
07:00 +26°C° 0.1 mm 4 mps 737 mmHg 86%
08:00 +28°C° 0.1 mm 4 mps 737 mmHg 81%
09:00 +29°C° 0.1 mm 4 mps 737 mmHg 75%
10:00 +30°C° 0 mm 4 mps 737 mmHg 70%
11:00 +32°C° 0 mm 4 mps 736 mmHg 65%
12:00 +33°C° 0 mm 4 mps 736 mmHg 60%
13:00 +34°C° 0 mm 3 mps 735 mmHg 57%
14:00 +35°C° 0 mm 3 mps 735 mmHg 54%
15:00 +35°C° 0 mm 2 mps 734 mmHg 51%
16:00 +34°C° 0 mm 2 mps 734 mmHg 59%
17:00 +31°C° 0 mm 2 mps 734 mmHg 66%
18:00 +29°C° 0 mm 2 mps 734 mmHg 73%
19:00 +28°C° 0.1 mm 2 mps 735 mmHg 76%
20:00 +28°C° 0.1 mm 3 mps 735 mmHg 79%
21:00 +27°C° 0.1 mm 3 mps 735 mmHg 81%
22:00 +26°C° 0.1 mm 3 mps 735 mmHg 82%
23:00 +26°C° 0.1 mm 3 mps 735 mmHg 82%

Day after tomorrow, 26 September, Saturday

Time Temperature Precipitation Wind Pressure Humidity
00:00 +26°C° 0.1 mm 3 mps 735 mmHg 83%
01:00 +25°C° 0.4 mm 3 mps 734 mmHg 85%
02:00 +25°C° 0.4 mm 3 mps 734 mmHg 88%
03:00 +24°C° 0.4 mm 3 mps 734 mmHg 90%
04:00 +24°C° 0.1 mm 3 mps 734 mmHg 90%
05:00 +24°C° 0.1 mm 3 mps 734 mmHg 91%
06:00 +24°C° 0.1 mm 3 mps 734 mmHg 91%
07:00 +26°C° 0 mm 3 mps 735 mmHg 86%
08:00 +27°C° 0 mm 4 mps 735 mmHg 81%
09:00 +29°C° 0 mm 4 mps 736 mmHg 75%
10:00 +30°C° 0 mm 4 mps 736 mmHg 68%
11:00 +33°C° 0 mm 4 mps 735 mmHg 62%
12:00 +35°C° 0 mm 4 mps 735 mmHg 55%
13:00 +35°C° 0 mm 4 mps 734 mmHg 55%
14:00 +34°C° 0 mm 4 mps 733 mmHg 56%
15:00 +34°C° 0 mm 4 mps 733 mmHg 57%
16:00 +33°C° 0 mm 3 mps 733 mmHg 62%
17:00 +31°C° 0 mm 2 mps 733 mmHg 67%
18:00 +29°C° 0 mm 1 mps 733 mmHg 73%
19:00 +29°C° 0.2 mm 2 mps 733 mmHg 76%
20:00 +28°C° 0.2 mm 2 mps 734 mmHg 79%
21:00 +27°C° 0.2 mm 3 mps 734 mmHg 82%
22:00 +27°C° 0 mm 3 mps 734 mmHg 85%
23:00 +26°C° 0 mm 3 mps 734 mmHg 88%

27 September, Sunday

Time Temperature Precipitation Wind Pressure Humidity
00:00 +26°C° 0 mm 3 mps 734 mmHg 90%
01:00 +25°C° 0.1 mm 3 mps 733 mmHg 91%
02:00 +25°C° 0.1 mm 3 mps 733 mmHg 92%
03:00 +25°C° 0.1 mm 3 mps 733 mmHg 93%
04:00 +25°C° 0.1 mm 4 mps 733 mmHg 93%
05:00 +25°C° 0.1 mm 4 mps 734 mmHg 94%
06:00 +23°C° 0.1 mm 4 mps 734 mmHg 94%
07:00 +26°C° 0 mm 4 mps 734 mmHg 88%
08:00 +27°C° 0 mm 3 mps 735 mmHg 81%
09:00 +29°C° 0 mm 3 mps 735 mmHg 75%
10:00 +30°C° 0 mm 4 mps 735 mmHg 69%
11:00 +33°C° 0 mm 4 mps 735 mmHg 63%
12:00 +34°C° 0 mm 4 mps 734 mmHg 56%
13:00 +34°C° 0 mm 4 mps 733 mmHg 55%
14:00 +35°C° 0 mm 3 mps 733 mmHg 53%
15:00 +35°C° 0 mm 3 mps 732 mmHg 52%
16:00 +34°C° 0 mm 2 mps 732 mmHg 57%
17:00 +31°C° 0 mm 2 mps 732 mmHg 62%
18:00 +30°C° 0 mm 2 mps 732 mmHg 67%
19:00 +29°C° 0 mm 2 mps 733 mmHg 69%
20:00 +28°C° 0 mm 2 mps 734 mmHg 72%
21:00 +28°C° 0 mm 2 mps 734 mmHg 74%
22:00 +27°C° 0 mm 2 mps 734 mmHg 77%
23:00 +27°C° 0 mm 2 mps 734 mmHg 79%

28 September, Monday

Time Temperature Precipitation Wind Pressure Humidity
00:00 +27°C° 0 mm 2 mps 734 mmHg 81%
01:00 +26°C° 0 mm 2 mps 734 mmHg 83%
02:00 +26°C° 0 mm 2 mps 734 mmHg 84%
03:00 +26°C° 0 mm 2 mps 734 mmHg 85%
04:00 +26°C° 0.1 mm 2 mps 734 mmHg 87%
05:00 +25°C° 0.1 mm 2 mps 734 mmHg 88%
06:00 +25°C° 0.1 mm 2 mps 734 mmHg 90%
07:00 +27°C° 0 mm 2 mps 735 mmHg 83%
08:00 +29°C° 0 mm 3 mps 735 mmHg 77%
09:00 +31°C° 0 mm 3 mps 736 mmHg 70%
10:00 +33°C° 1.4 mm 3 mps 735 mmHg 65%
11:00 +34°C° 1.4 mm 2 mps 735 mmHg 60%
12:00 +35°C° 1.4 mm 2 mps 734 mmHg 55%
13:00 +32°C° 0.9 mm 2 mps 734 mmHg 59%
14:00 +30°C° 0.9 mm 2 mps 733 mmHg 63%
15:00 +28°C° 0.9 mm 2 mps 732 mmHg 68%
16:00 +27°C° 0 mm 2 mps 733 mmHg 67%
17:00 +27°C° 0 mm 2 mps 733 mmHg 67%
18:00 +27°C° 0 mm 2 mps 733 mmHg 67%
19:00 +27°C° 0 mm 2 mps 734 mmHg 70%
20:00 +26°C° 0 mm 1 mps 734 mmHg 73%
21:00 +26°C° 0 mm 1 mps 735 mmHg 75%
22:00 +25°C° 0 mm 1 mps 735 mmHg 75%
23:00 +25°C° 0 mm 1 mps 735 mmHg 74%

29 September, Tuesday

Time Temperature Precipitation Wind Pressure Humidity
00:00 +25°C° 0 mm 1 mps 735 mmHg 74%
01:00 +25°C° 0.2 mm 1 mps 734 mmHg 75%
02:00 +25°C° 0.2 mm 2 mps 734 mmHg 77%
03:00 +24°C° 0.2 mm 2 mps 734 mmHg 79%
04:00 +24°C° 0.4 mm 2 mps 734 mmHg 82%
05:00 +23°C° 0.4 mm 2 mps 734 mmHg 86%
06:00 +23°C° 0.4 mm 1 mps 734 mmHg 89%
07:00 +25°C° 0.2 mm 2 mps 735 mmHg 83%
08:00 +26°C° 0.2 mm 2 mps 735 mmHg 77%
09:00 +28°C° 0.2 mm 2 mps 736 mmHg 71%
10:00 +30°C° 0 mm 2 mps 735 mmHg 64%
11:00 +32°C° 0 mm 2 mps 735 mmHg 57%
12:00 +35°C° 0 mm 3 mps 735 mmHg 50%
13:00 +35°C° 0 mm 2 mps 734 mmHg 49%
14:00 +36°C° 0 mm 2 mps 734 mmHg 47%
15:00 +35°C° 0 mm 1 mps 733 mmHg 46%
16:00 +34°C° 0 mm 1 mps 733 mmHg 52%
17:00 +32°C° 0 mm 1 mps 733 mmHg 58%
18:00 +30°C° 0 mm 1 mps 733 mmHg 64%
19:00 +30°C° 0 mm 2 mps 733 mmHg 69%
20:00 +29°C° 0 mm 2 mps 734 mmHg 74%
21:00 +28°C° 0 mm 3 mps 734 mmHg 80%
22:00 +28°C° 0 mm 3 mps 734 mmHg 81%
23:00 +27°C° 0 mm 3 mps 734 mmHg 82%
Show more